Portada
METAR-TAF:

METAR-TAF

Aeroports :

Siem Reap, Cambodja

latitud: 13-22N, longitud: 103-51E, altitud: 15 m

Observació

L'informe es va fer fa 11 minuts, a les 03:30 UTC
Vent 2 kt amb direcció variable
Temperatura 27°C
Humitat 66%
Pressió 1013 hPa
Visibilitat 10 km o més
Núvols disperses a una alçada de 1500 ft
Núvols disperses a una alçada de 4000 ft

METAR: VDSR 210330Z VRB02KT 9999 SCT015 SCT040 27/20 Q1013

Hora: 10:41 (03:41 UTC)

Pronòstic

L'informe es va fer fa 4 hores i 41 minuts, a les 23:00 UTC
Pronòstic vàlid del 21 a les 00 UTC al 21 a les 18 UTC
Vent 7 kt del Nord-Est
Visibilitat 10 km o més
Núvols disperses a una alçada de 1700 ft

TAF: VDSR 202300Z 2100/2118 04007KT 9999 SCT017

Observacions i pronòstics meteorològics de més de 4000 aeroports (METAR i TAF).

Les estacions disponibles són els punts grocs i vermells al mapa.

Posi el ratolí al punt desitjat per veure el nom de l'estació.

Feu clic per veure les observacions i els pronòstics meteorològics.

Per canviar el mapa: feu clic els botons verds amb una creu de color negre per apropar; al botó verd amb un guió per allunyar la imatge; o en les fletxes verdes per a mapes adjacents.


METAR-TAF: